Showing default

INTELSAT 37E, 42950

Orbit data source: Space-Track

INTELSAT 37E, 42950 is a payload satellite owned by Intelsat SA (US) (US) in GEO that was launched on Fri, 29 Sep 2017 UTC via an ARIANE 5ECA launch vehicle from the French Guiana (FRGUI). Payload-class satellites include a variety of spacecraft equipped with specific instruments for various scientific and technological missions. These include communications satellites like Starlink; space stations such as the ISS; scientific satellites like the Hubble; Earth observation satellites from companies like Planet Labs, Umbra, and HawkEye 360; GPS; miniature CubeSats for education and research; and military/defense satellites.

Not visible in the next 10 days
Identifier
42950, 2017-059A
Orbit
GEO
Last TLE update
1 day ago
Origin
Manufacturer
Boeing/ES
Mission
Operational Commercial Communications
Bus & Motor
BSS-702MP, BT-4
Mass
6,538 kg wet, ~2,950 kg dry
Launch date (UTC)
2017-09-29 (8 years ago)
Launch vehicle
ARIANE 5ECA
Launch site
French Guiana (FRGUI)
Object type
Payload
Rocket body
Debris
Shape & HBR
Box + 2 Pan, 44 m
Radar Cross Section
65.369 m², Large (>1 m²)

Expand to show TLE details & history

TLE from 1 day ago
0 INTELSAT 37E
1 42950U 17059A   25181.42148112 -.00000142  00000-0  00000-0 0  9990
2 42950   0.0176  44.0812 0002679  81.1459 287.2258  1.00271140 28535
Epoch: 2025-06-30T10:06Z
TLE epoch observation values (Epoch: 2025-06-30T10:06:55.968Z)
Latitude
0.01039°
Longitude
-18.02613°
Altitude
35,782.873 km
Speed
3.075 km/s
True Right ascension
03h 29m 45s
True Declination
0° 00' 37"
Sunlit
Object was in daylight at epoch
Visualization orbit readout
Latitude
0.01293°
Longitude
-14.18502°
Altitude
35,782.191 km
Speed
3.075 km/s
Apparent Right ascension
04h 11m 45s
Apparent Declination
-5° 29' 52"
Sunlit
Object is in daylight
Visualization observer readout
Local Sidereal Time
21:56:45
Azimuth
91.831° ESE
Elevation
-6.394°
Doppler factor
1
Orbital elements
Apogee altitude
35,799.142 km
Perigee altitude
35,776.55 km
Semi-major axis
42,165.983 km
Eccentricity
0.00027
Inclination
0.0176°
RAAN
44.0812°
Arg. of periapsis
81.1459°
True anomaly
Unknown
Mean anomaly
287.2258°
Eccentric anomaly
Unknown
Mean motion
0.25067 °/min
Orbital period
1,436.16 mins
BSTAR
0
Loading historical data...
42950 neighbors
Loading maneuver chart data...
Loading SW <> Apogee altitude chart data...
Loading historical data...
Loading historical data...
Loading historical data...
Loading historical data...
Loading historical data...
Loading historical data...
Loading historical data...
Other satellites on launch #59 in the year 2017 (2017-09-29 UTC)

INTELSAT 37E Visibility

Observer location: undefined°, undefined°

INTELSAT 37E is likely not visible in the next few days
Span
Click to sort rows by Start time (UTC) header in descending order
Start Az.
Max El. time (UTC)
Max El. Az.
Max El.
End time (UTC)
End Az.
|